Weather History for KIPT - July, 2014

Change the Weather History Date:

Tuesday, July 1, 2014

  Actual Average Record
Temperature  
Mean Temperature 81 °F 72 °F  
Max Temperature 91 °F 83 °F 102 °F (1931)
Min Temperature 70 °F 61 °F 44 °F (1943)
Degree Days  
Heating Degree Days 0 0  
Month to date heating degree days 0 0  
Since 1 June heating degree days 8 37  
Since 1 July heating degree days 0 0  
Cooling Degree Days 16 7  
Month to date cooling degree days 16 7  
Year to date cooling degree days 237 196  
Since 1 June cooling degree days 185 153  
Growing Degree Days 30 (Base 50)    
Moisture  
Dew Point 69 °F    
Average Humidity 67    
Maximum Humidity 84    
Minimum Humidity 49    
Precipitation  
Precipitation 0.03 in 0.13 in 2.42 in (1984)
Month to date precipitation 0.03 0.13  
Year to date precipitation 18.24 18.96  
Sea Level Pressure  
Sea Level Pressure 29.82 in    
Wind  
Wind Speed 7 mph (ESE)    
Max Wind Speed 17 mph    
Max Gust Speed 24 mph    
Visibility 10 miles    
Events Thunderstorm    
T = Trace of Precipitation, MM = Missing Value Source: NWS Daily Summary

Daily Weather History Graph

Daily Weather History Graph

Search for Another Location

Airport or City:

Trip Planner

Search our weather history database for the weather conditions in past years. The results will help you decide how hot, cold, wet, or windy it might be!

Date:

Astronomy

Jul. 01, 2014 Rise Set
Actual Time 5:38 AM EDT 8:44 PM EDT
Civil Twilight 5:04 AM EDT 9:18 PM EDT
Nautical Twilight 4:21 AM EDT 10:01 PM EDT
Astronomical Twilight 3:30 AM EDT 10:51 PM EDT
Moon 9:47 AM EDT (7/1) 11:04 PM EDT (7/1)
Length of Visible Light 16h 13m
Length of Day
15h 06m
Waxing Crescent, 16% of the Moon is Illuminated
Jul 1
Waxing Crescent
Jul 5
First Quarter
Jul 12
Full
Jul 18
Last Quarter
Jul 26
New

Hourly Weather History & Observations

Time (EDT) Temp. Heat Index Dew Point Humidity Pressure Visibility Wind Dir Wind Speed Gust Speed Precip Events Conditions
12:54 AM 77.0 °F - 66.2 °F 69% 29.92 in 10.0 mi East 6.9 mph - N/A   Scattered Clouds
1:54 AM 75.9 °F - 66.9 °F 74% 29.89 in 10.0 mi ENE 8.1 mph - N/A   Clear
2:54 AM 75.0 °F - 66.9 °F 76% 29.86 in 10.0 mi ENE 9.2 mph - N/A   Partly Cloudy
3:54 AM 73.9 °F - 66.9 °F 79% 29.86 in 10.0 mi ENE 8.1 mph - N/A   Scattered Clouds
4:54 AM 73.4 °F - 66.2 °F 78% 29.87 in 10.0 mi East 5.8 mph - N/A   Clear
5:54 AM 71.1 °F - 66.9 °F 87% 29.88 in 9.0 mi Calm Calm - N/A   Clear
6:54 AM 75.0 °F - 68.0 °F 79% 29.88 in 10.0 mi NNE 5.8 mph - N/A   Scattered Clouds
7:54 AM 77.0 °F - 68.0 °F 74% 29.85 in 10.0 mi East 6.9 mph - N/A   Clear
8:54 AM 78.1 °F - 69.1 °F 74% 29.86 in 10.0 mi SSE 8.1 mph - N/A   Partly Cloudy
9:54 AM 81.0 °F 84.4 °F 70.0 °F 69% 29.81 in 10.0 mi SE 6.9 mph - N/A   Partly Cloudy
10:54 AM 82.4 °F 86.3 °F 69.8 °F 66% 29.81 in 10.0 mi ESE 6.9 mph 19.6 mph N/A   Partly Cloudy
11:54 AM 84.9 °F 89.4 °F 70.0 °F 61% 29.80 in 10.0 mi Variable 5.8 mph 24.2 mph N/A   Scattered Clouds
12:54 PM 87.1 °F 92.0 °F 70.0 °F 57% 29.80 in 10.0 mi Calm Calm - N/A   Scattered Clouds
1:54 PM 89.1 °F 94.1 °F 70.0 °F 53% 29.79 in 10.0 mi North - - N/A   Scattered Clouds
2:54 PM 91.0 °F 96.6 °F 70.0 °F 50% 29.78 in 10.0 mi South 13.8 mph 20.7 mph N/A   Partly Cloudy
3:54 PM 91.4 °F 96.8 °F 69.8 °F 49% 29.79 in 10.0 mi SSW 13.8 mph 20.7 mph N/A Thunderstorm Mostly Cloudy
4:13 PM 88.0 °F 91.4 °F 68.0 °F 51% 29.78 in 10.0 mi South 11.5 mph - N/A Thunderstorm Thunderstorm
4:54 PM 81.0 °F 84.9 °F 71.1 °F 72% 29.78 in 10.0 mi Variable 6.9 mph - 0.03 in Thunderstorm Scattered Clouds
5:04 PM 82.0 °F 86.3 °F 71.1 °F 69% 29.79 in 10.0 mi Calm Calm - N/A   Partly Cloudy
5:54 PM 87.1 °F 93.6 °F 72.0 °F 61% 29.78 in 10.0 mi Variable 3.5 mph - N/A   Clear
6:54 PM 84.2 °F 89.6 °F 71.6 °F 66% 29.78 in 10.0 mi Variable 6.9 mph - N/A   Clear
7:54 PM 84.0 °F 89.0 °F 71.1 °F 65% 29.77 in 10.0 mi East 4.6 mph - N/A   Clear
8:54 PM 81.0 °F 84.9 °F 71.1 °F 72% 29.78 in 10.0 mi East 6.9 mph - N/A   Clear
9:54 PM 79.0 °F - 71.1 °F 77% 29.79 in 10.0 mi East 6.9 mph - N/A   Clear
10:54 PM 78.1 °F - 71.1 °F 79% 29.79 in 10.0 mi ESE 5.8 mph - N/A   Clear
11:54 PM 77.0 °F - 71.1 °F 82% 29.78 in 10.0 mi East 5.8 mph - N/A   Clear